TimeMST,TemperatureF,Dew PointF,Humidity,Sea Level PressureIn,VisibilityMPH,Wind Direction,Wind SpeedMPH,Gust SpeedMPH,PrecipitationIn,Events,Conditions,WindDirDegrees,DateUTC
12:15 AM,-9.4,-11.2,92,30.00,10.0,North,9.2,-,N/A,,Scattered Clouds,10,2012-12-31 07:15:00
12:35 AM,-9.4,-11.2,92,30.00,10.0,North,8.1,-,N/A,,Scattered Clouds,10,2012-12-31 07:35:00
12:55 AM,-9.4,-11.2,92,29.99,10.0,North,6.9,-,N/A,,Mostly Cloudy,360,2012-12-31 07:55:00
1:15 AM,-9.4,-11.2,92,29.99,10.0,North,6.9,-,N/A,,Overcast,360,2012-12-31 08:15:00
1:35 AM,-7.6,-9.4,92,29.99,8.0,North,5.8,-,N/A,,Overcast,10,2012-12-31 08:35:00
1:55 AM,-5.8,-9.4,84,29.99,10.0,NNE,5.8,-,N/A,,Overcast,20,2012-12-31 08:55:00
2:15 AM,-5.8,-7.6,92,30.00,5.0,North,4.6,-,N/A,,Overcast,10,2012-12-31 09:15:00
2:35 AM,-4.0,-5.8,92,30.00,5.0,North,5.8,-,N/A,,Overcast,10,2012-12-31 09:35:00
2:55 AM,-4.0,-5.8,92,30.00,4.0,North,5.8,-,N/A,,Overcast,360,2012-12-31 09:55:00
3:15 AM,-5.8,-7.6,92,30.00,5.0,North,6.9,-,N/A,,Overcast,360,2012-12-31 10:15:00
3:35 AM,-5.8,-7.6,92,30.00,9.0,North,9.2,-,N/A,,Overcast,10,2012-12-31 10:35:00
4:15 AM,-2.2,-4.0,92,30.00,8.0,North,6.9,-,N/A,,Overcast,360,2012-12-31 11:15:00
4:35 AM,-2.2,-4.0,92,30.00,7.0,Calm,Calm,-,N/A,,Overcast,0,2012-12-31 11:35:00
4:55 AM,-2.2,-5.8,85,30.00,5.0,Calm,Calm,-,N/A,,Overcast,0,2012-12-31 11:55:00
5:35 AM,-2.2,-5.8,85,29.99,10.0,North,6.9,-,N/A,,Overcast,350,2012-12-31 12:35:00
5:55 AM,-2.2,-5.8,85,29.99,7.0,Calm,Calm,-,N/A,,Overcast,0,2012-12-31 12:55:00
6:15 AM,-0.4,-2.2,92,29.99,7.0,Calm,Calm,-,N/A,,Overcast,0,2012-12-31 13:15:00
6:35 AM,-2.2,-4.0,92,30.00,3.0,Calm,Calm,-,N/A,,Overcast,0,2012-12-31 13:35:00
6:52 AM,-2.2,-4.0,92,30.01,10.0,Calm,Calm,-,N/A,,Scattered Clouds,0,2012-12-31 13:52:00
7:53 AM,-0.4,-2.2,92,30.02,7.0,North,3.5,-,N/A,,Mostly Cloudy,350,2012-12-31 14:53:00
8:54 AM,-2.2,-4.0,92,30.02,8.0,Calm,Calm,-,N/A,,Scattered Clouds,0,2012-12-31 15:54:00
9:55 AM,-2.2,-2.2,100,30.06,6.0,Calm,Calm,-,N/A,,Scattered Clouds,0,2012-12-31 16:55:00
10:53 AM,1.4,-0.4,92,30.06,10.0,Calm,Calm,-,N/A,,Clear,0,2012-12-31 17:53:00
11:51 AM,3.2,-0.4,85,30.04,10.0,SE,4.6,-,N/A,,Clear,140,2012-12-31 18:51:00
1:59 PM,8.6,1.4,73,30.01,10.0,Calm,Calm,-,N/A,,Clear,0,2012-12-31 20:59:00
2:52 PM,10.4,3.2,73,30.02,10.0,Calm,Calm,-,N/A,,Clear,0,2012-12-31 21:52:00
3:51 PM,8.6,3.2,79,30.03,10.0,SE,4.6,-,N/A,,Clear,140,2012-12-31 22:51:00
4:53 PM,1.4,-0.4,92,30.04,10.0,Calm,Calm,-,N/A,,Clear,0,2012-12-31 23:53:00
5:52 PM,-5.8,-5.8,100,30.06,10.0,North,4.6,-,N/A,,Clear,350,2013-01-01 00:52:00
6:55 PM,-2.2,-4.0,92,30.08,10.0,NE,5.8,-,N/A,,Scattered Clouds,40,2013-01-01 01:55:00
7:52 PM,-2.2,-5.8,85,30.07,10.0,Calm,Calm,-,N/A,,Mostly Cloudy,0,2013-01-01 02:52:00
8:52 PM,-0.4,-2.2,92,30.08,6.0,North,5.8,-,N/A,Snow,Snow Showers,360,2013-01-01 03:52:00
8:55 PM,-0.4,-2.2,92,30.08,6.0,North,3.5,-,N/A,,Overcast,10,2013-01-01 03:55:00
9:15 PM,1.4,-0.4,92,30.08,3.0,Calm,Calm,-,N/A,,Overcast,0,2013-01-01 04:15:00
9:35 PM,1.4,-0.4,92,30.08,3.0,Calm,Calm,-,N/A,,Overcast,0,2013-01-01 04:35:00
9:55 PM,-0.4,-2.2,92,30.08,3.0,Calm,Calm,-,N/A,,Overcast,0,2013-01-01 04:55:00
10:15 PM,1.4,-0.4,92,30.09,6.0,NE,3.5,-,N/A,,Overcast,50,2013-01-01 05:15:00
10:35 PM,1.4,-0.4,92,30.10,6.0,Calm,Calm,-,N/A,,Overcast,0,2013-01-01 05:35:00
10:55 PM,1.4,-0.4,92,30.12,3.0,Calm,Calm,-,N/A,,Mostly Cloudy,0,2013-01-01 05:55:00
11:15 PM,3.2,1.4,92,30.13,5.0,Calm,Calm,-,N/A,,Overcast,0,2013-01-01 06:15:00
11:35 PM,1.4,-0.4,92,30.13,5.0,Calm,Calm,-,N/A,,Overcast,0,2013-01-01 06:35:00
11:55 PM,3.2,1.4,92,30.13,3.0,Calm,Calm,-,N/A,,Mostly Cloudy,0,2013-01-01 06:55:00